Private Wetterstation Wechselburg
Wetterdaten: Montag, 16.05.2011
Datum Zeit Temp. +2m Bodentemp. Temp.+5cm Temp. Wind Windchill X Diff Temp. Feuchte +2m Feuchte +5cm Sonnenschein Luftdruck Regen Wind Richtung Richtung Sonnenschein UV Taupunkt Windchill Windben
16.05.2011 00:00 9,3 C 16,2 C 7,7 C 8,1 C 5,8 C 0,0 C 81 % 93 % 0 % 1021,1 hPa 0,0 l/m 0,0 km/h (0 Bft) SW 225 0 min 0,0 UV-I 6,2 C 5,8 C 0,0 km/h (0 Bft)
16.05.2011 00:10 9,1 C 16,2 C 7,6 C 8,0 C 5,8 C 0,0 C 81 % 92 % 0 % 1021,1 hPa 0,0 l/m 0,0 km/h (0 Bft) N 0 0 min 0,0 UV-I 6,0 C 5,8 C 0,0 km/h (0 Bft)
16.05.2011 00:15 8,8 C 16,2 C 7,6 C 7,8 C 5,9 C 0,0 C 81 % 93 % 0 % 1021,0 hPa 0,0 l/m 0,0 km/h (0 Bft) W-NW 292 0 min 0,0 UV-I 5,7 C 5,9 C 0,0 km/h (0 Bft)
16.05.2011 00:20 8,9 C 16,2 C 7,6 C 7,9 C 5,9 C 0,0 C 82 % 93 % 0 % 1021,0 hPa 0,0 l/m 0,0 km/h (0 Bft) W-NW 292 0 min 0,0 UV-I 6,0 C 5,9 C 0,0 km/h (0 Bft)
16.05.2011 00:25 8,8 C 16,2 C 7,5 C 7,8 C 5,8 C 0,0 C 83 % 93 % 0 % 1021,0 hPa 0,0 l/m 0,0 km/h (0 Bft) W-NW 292 0 min 0,0 UV-I 6,1 C 5,8 C 0,0 km/h (0 Bft)
16.05.2011 00:30 8,8 C 16,2 C 7,5 C 7,8 C 5,8 C 0,0 C 82 % 93 % 0 % 1021,0 hPa 0,0 l/m 0,0 km/h (0 Bft) W-NW 292 0 min 0,0 UV-I 5,9 C 5,8 C 0,0 km/h (0 Bft)
16.05.2011 00:35 8,7 C 16,2 C 7,4 C 7,7 C 5,8 C 0,0 C 83 % 93 % 0 % 1021,2 hPa 0,0 l/m 0,0 km/h (0 Bft) W-NW 292 0 min 0,0 UV-I 6,0 C 5,8 C 0,0 km/h (0 Bft)
16.05.2011 00:40 8,7 C 16,2 C 7,3 C 7,7 C 5,7 C 0,0 C 82 % 93 % 0 % 1021,2 hPa 0,0 l/m 0,0 km/h (0 Bft) W-NW 292 0 min 0,0 UV-I 5,8 C 5,7 C 0,0 km/h (0 Bft)
16.05.2011 00:45 8,5 C 16,2 C 7,2 C 7,5 C 5,6 C 0,0 C 83 % 93 % 0 % 1021,2 hPa 0,0 l/m 0,0 km/h (0 Bft) W-NW 292 0 min 0,0 UV-I 5,8 C 5,6 C 0,0 km/h (0 Bft)
16.05.2011 00:50 8,5 C 16,2 C 7,3 C 7,5 C 5,5 C 0,0 C 83 % 93 % 0 % 1021,2 hPa 0,0 l/m 0,0 km/h (0 Bft) W-NW 292 0 min 0,0 UV-I 5,8 C 5,5 C 0,0 km/h (0 Bft)
16.05.2011 00:55 8,4 C 16,1 C 7,3 C 7,4 C 5,4 C 0,0 C 83 % 93 % 0 % 1021,1 hPa 0,0 l/m 0,0 km/h (0 Bft) W-NW 292 0 min 0,0 UV-I 5,7 C 5,4 C 0,0 km/h (0 Bft)
16.05.2011 01:00 8,3 C 16,1 C 7,2 C 7,3 C 5,3 C 0,0 C 83 % 93 % 0 % 1021,1 hPa 0,0 l/m 0,0 km/h (0 Bft) W-NW 292 0 min 0,0 UV-I 5,6 C 5,3 C 0,0 km/h (0 Bft)
16.05.2011 01:08 8,5 C 16,0 C 7,2 C 7,3 C 5,0 C 0,0 C 83 % 93 % 0 % 1021,1 hPa 0,0 l/m 0,0 km/h (0 Bft) N 0 0 min 0,0 UV-I 5,8 C 5,0 C 0,0 km/h (0 Bft)
16.05.2011 01:15 8,5 C 16,0 C 7,2 C 7,4 C 5,1 C 0,0 C 83 % 93 % 0 % 1021,4 hPa 0,0 l/m 0,0 km/h (0 Bft) S 180 0 min 0,0 UV-I 5,8 C 5,1 C 0,0 km/h (0 Bft)
16.05.2011 01:20 8,5 C 16,0 C 7,2 C 7,3 C 5,0 C 0,0 C 83 % 93 % 0 % 1021,4 hPa 0,0 l/m 0,0 km/h (0 Bft) S 180 0 min 0,0 UV-I 5,8 C 5,0 C 0,0 km/h (0 Bft)
16.05.2011 01:25 8,5 C 16,0 C 7,2 C 7,3 C 5,0 C 0,0 C 83 % 93 % 0 % 1021,4 hPa 0,0 l/m 0,0 km/h (0 Bft) S-SW 202 0 min 0,0 UV-I 5,8 C 5,0 C 0,0 km/h (0 Bft)
16.05.2011 01:30 8,5 C 16,0 C 7,1 C 7,3 C 5,0 C 0,0 C 83 % 93 % 0 % 1021,4 hPa 0,0 l/m 0,0 km/h (0 Bft) SW 225 0 min 0,0 UV-I 5,8 C 5,0 C 0,0 km/h (0 Bft)
16.05.2011 01:35 8,4 C 16,0 C 7,0 C 7,2 C 4,7 C 0,0 C 82 % 92 % 0 % 1021,8 hPa 0,0 l/m 0,0 km/h (0 Bft) SW 225 0 min 0,0 UV-I 5,5 C 4,7 C 0,0 km/h (0 Bft)
16.05.2011 01:40 8,2 C 16,0 C 6,9 C 7,0 C 4,6 C 0,0 C 82 % 92 % 0 % 1021,8 hPa 0,0 l/m 0,0 km/h (0 Bft) S 180 0 min 0,0 UV-I 5,3 C 4,6 C 0,0 km/h (0 Bft)
16.05.2011 01:45 8,2 C 16,0 C 6,8 C 7,0 C 4,7 C 0,0 C 82 % 92 % 0 % 1021,8 hPa 0,0 l/m 0,0 km/h (0 Bft) S 180 0 min 0,0 UV-I 5,3 C 4,7 C 0,0 km/h (0 Bft)
16.05.2011 01:50 8,2 C 15,9 C 6,8 C 7,0 C 4,6 C 0,0 C 83 % 92 % 0 % 1021,8 hPa 0,0 l/m 0,0 km/h (0 Bft) S 180 0 min 0,0 UV-I 5,5 C 4,6 C 0,0 km/h (0 Bft)
16.05.2011 01:55 8,3 C 15,9 C 6,8 C 7,1 C 4,6 C 0,0 C 82 % 92 % 0 % 1021,6 hPa 0,0 l/m 0,0 km/h (0 Bft) S 180 0 min 0,0 UV-I 5,4 C 4,6 C 0,0 km/h (0 Bft)
16.05.2011 02:00 8,3 C 15,8 C 6,7 C 7,1 C 4,7 C 0,0 C 82 % 92 % 0 % 1021,6 hPa 0,0 l/m 0,0 km/h (0 Bft) SW 225 0 min 0,0 UV-I 5,4 C 4,7 C 0,0 km/h (0 Bft)
16.05.2011 02:10 8,3 C 15,8 C 6,9 C 7,2 C 5,0 C 0,0 C 83 % 92 % 0 % 1021,6 hPa 0,0 l/m 0,0 km/h (0 Bft) N 0 0 min 0,0 UV-I 5,6 C 5,0 C 0,0 km/h (0 Bft)
16.05.2011 02:15 8,3 C 15,8 C 6,9 C 7,3 C 5,2 C 0,0 C 84 % 93 % 0 % 1021,6 hPa 0,0 l/m 0,2 km/h (0 Bft) SW 225 0 min 0,0 UV-I 5,8 C 5,2 C 2,1 km/h (1 Bft)
16.05.2011 02:20 8,4 C 15,8 C 6,9 C 7,4 C 5,3 C 0,0 C 84 % 93 % 0 % 1021,6 hPa 0,0 l/m 0,3 km/h (0 Bft) W-SW 247 0 min 0,0 UV-I 5,9 C 5,3 C 1,8 km/h (1 Bft)
16.05.2011 02:25 8,3 C 15,8 C 6,8 C 7,3 C 5,4 C 0,0 C 83 % 93 % 0 % 1021,6 hPa 0,0 l/m 0,3 km/h (0 Bft) SW 225 0 min 0,0 UV-I 5,6 C 5,4 C 0,0 km/h (0 Bft)
16.05.2011 02:30 8,0 C 15,8 C 6,8 C 7,2 C 5,5 C 0,0 C 83 % 93 % 0 % 1021,6 hPa 0,0 l/m 0,0 km/h (0 Bft) O-NO 67 0 min 0,0 UV-I 5,3 C 5,5 C 0,0 km/h (0 Bft)
16.05.2011 02:35 8,1 C 15,8 C 6,8 C 7,3 C 5,6 C 0,0 C 83 % 93 % 0 % 1021,7 hPa 0,0 l/m 0,0 km/h (0 Bft) O-NO 67 0 min 0,0 UV-I 5,4 C 5,6 C 0,0 km/h (0 Bft)
16.05.2011 02:40 7,9 C 15,8 C 6,9 C 7,2 C 5,7 C 0,0 C 83 % 93 % 0 % 1021,7 hPa 0,0 l/m 0,0 km/h (0 Bft) O-NO 67 0 min 0,0 UV-I 5,2 C 5,7 C 0,0 km/h (0 Bft)
16.05.2011 02:45 8,0 C 15,8 C 6,8 C 7,3 C 5,8 C 0,0 C 83 % 93 % 0 % 1021,7 hPa 0,0 l/m 0,0 km/h (0 Bft) O-NO 67 0 min 0,0 UV-I 5,3 C 5,8 C 0,0 km/h (0 Bft)
16.05.2011 02:50 8,3 C 15,7 C 6,9 C 7,5 C 5,8 C 0,0 C 84 % 93 % 0 % 1021,7 hPa 0,0 l/m 0,0 km/h (0 Bft) O-NO 67 0 min 0,0 UV-I 5,8 C 5,8 C 0,0 km/h (0 Bft)
16.05.2011 02:55 8,3 C 15,7 C 7,1 C 7,5 C 5,8 C 0,0 C 84 % 93 % 0 % 1021,6 hPa 0,0 l/m 0,0 km/h (0 Bft) S 180 0 min 0,0 UV-I 5,8 C 5,8 C 0,0 km/h (0 Bft)
16.05.2011 03:00 8,3 C 15,7 C 7,1 C 7,5 C 5,8 C 0,0 C 83 % 93 % 0 % 1021,6 hPa 0,0 l/m 0,0 km/h (0 Bft) O-SO 112 0 min 0,0 UV-I 5,6 C 5,8 C 0,0 km/h (0 Bft)
16.05.2011 03:10 8,1 C 15,7 C 7,1 C 7,3 C 5,8 C 0,0 C 83 % 93 % 0 % 1021,6 hPa 0,0 l/m 0,0 km/h (0 Bft) N 0 0 min 0,0 UV-I 5,4 C 5,8 C 0,0 km/h (0 Bft)
16.05.2011 03:15 8,2 C 15,7 C 7,1 C 7,3 C 5,5 C 0,0 C 84 % 93 % 0 % 1021,8 hPa 0,0 l/m 0,0 km/h (0 Bft) O-SO 112 0 min 0,0 UV-I 5,7 C 5,5 C 0,0 km/h (0 Bft)
16.05.2011 03:20 8,1 C 15,7 C 6,9 C 7,2 C 5,5 C 0,0 C 83 % 92 % 0 % 1021,8 hPa 0,0 l/m 0,0 km/h (0 Bft) O-SO 112 0 min 0,0 UV-I 5,4 C 5,5 C 0,0 km/h (0 Bft)
16.05.2011 03:25 7,9 C 15,6 C 6,8 C 7,1 C 5,4 C 0,0 C 83 % 92 % 0 % 1021,8 hPa 0,0 l/m 0,0 km/h (0 Bft) O-SO 112 0 min 0,0 UV-I 5,2 C 5,4 C 0,0 km/h (0 Bft)
16.05.2011 03:30 7,9 C 15,7 C 6,8 C 7,0 C 5,3 C 0,0 C 83 % 92 % 0 % 1021,8 hPa 0,0 l/m 0,0 km/h (0 Bft) O-SO 112 0 min 0,0 UV-I 5,2 C 5,3 C 0,0 km/h (0 Bft)
16.05.2011 03:35 7,9 C 15,7 C 6,8 C 7,0 C 5,3 C 0,0 C 84 % 92 % 0 % 1021,8 hPa 0,0 l/m 0,0 km/h (0 Bft) O-SO 112 0 min 0,0 UV-I 5,4 C 5,3 C 0,0 km/h (0 Bft)
16.05.2011 03:40 7,9 C 15,6 C 6,8 C 7,0 C 5,3 C 0,0 C 84 % 92 % 0 % 1021,8 hPa 0,0 l/m 0,0 km/h (0 Bft) O-SO 112 0 min 0,0 UV-I 5,4 C 5,3 C 0,0 km/h (0 Bft)
16.05.2011 03:45 8,0 C 15,5 C 6,8 C 7,1 C 5,4 C 0,0 C 84 % 92 % 0 % 1021,8 hPa 0,0 l/m 0,0 km/h (0 Bft) O-SO 112 0 min 0,0 UV-I 5,5 C 5,4 C 0,0 km/h (0 Bft)
16.05.2011 03:50 8,1 C 15,5 C 6,8 C 7,2 C 5,5 C 0,0 C 84 % 92 % 0 % 1021,8 hPa 0,0 l/m 0,0 km/h (0 Bft) S-SO 157 0 min 0,0 UV-I 5,6 C 5,5 C 0,0 km/h (0 Bft)
16.05.2011 03:55 8,1 C 15,5 C 6,9 C 7,3 C 5,6 C 0,0 C 83 % 92 % 0 % 1021,8 hPa 0,0 l/m 0,0 km/h (0 Bft) S 180 0 min 0,0 UV-I 5,4 C 5,6 C 0,0 km/h (0 Bft)
16.05.2011 04:00 8,1 C 15,5 C 7,0 C 7,3 C 5,7 C 0,0 C 83 % 92 % 0 % 1021,8 hPa 0,0 l/m 0,0 km/h (0 Bft) S 180 0 min 0,0 UV-I 5,4 C 5,7 C 0,0 km/h (0 Bft)
16.05.2011 04:10 8,2 C 15,4 C 7,1 C 7,5 C 6,0 C 0,0 C 84 % 93 % 0 % 1021,8 hPa 0,0 l/m 0,6 km/h (0 Bft) N 0 0 min 0,0 UV-I 5,7 C 6,0 C 3,5 km/h (1 Bft)
16.05.2011 04:15 8,3 C 15,4 C 7,2 C 7,6 C 6,1 C 0,0 C 84 % 93 % 0 % 1021,8 hPa 0,0 l/m 0,6 km/h (0 Bft) S 180 0 min 0,0 UV-I 5,8 C 6,1 C 0,0 km/h (0 Bft)
16.05.2011 04:20 8,4 C 15,4 C 7,2 C 7,6 C 6,1 C 0,0 C 84 % 93 % 0 % 1021,8 hPa 0,0 l/m 0,3 km/h (0 Bft) S 180 0 min 0,0 UV-I 5,9 C 6,1 C 0,0 km/h (0 Bft)
16.05.2011 04:25 8,3 C 15,4 C 7,2 C 7,6 C 6,1 C 0,0 C 83 % 93 % 0 % 1021,8 hPa 0,0 l/m 0,2 km/h (0 Bft) SO 135 0 min 0,0 UV-I 5,6 C 6,1 C 0,0 km/h (0 Bft)
16.05.2011 04:30 8,2 C 15,4 C 7,2 C 7,5 C 6,1 C 0,0 C 83 % 93 % 0 % 1021,8 hPa 0,0 l/m 0,0 km/h (0 Bft) SO 135 0 min 0,0 UV-I 5,5 C 6,1 C 0,0 km/h (0 Bft)
16.05.2011 04:35 8,3 C 15,4 C 7,2 C 7,6 C 6,1 C 0,0 C 83 % 93 % 0 % 1021,8 hPa 0,0 l/m 0,0 km/h (0 Bft) SO 135 0 min 0,0 UV-I 5,6 C 6,1 C 0,0 km/h (0 Bft)
16.05.2011 04:40 8,3 C 15,4 C 7,2 C 7,6 C 6,2 C 0,0 C 83 % 93 % 0 % 1021,8 hPa 0,0 l/m 0,0 km/h (0 Bft) SO 135 0 min 0,0 UV-I 5,6 C 6,2 C 0,0 km/h (0 Bft)
16.05.2011 04:45 8,3 C 15,4 C 7,2 C 7,6 C 6,3 C 0,0 C 83 % 93 % 0 % 1021,8 hPa 0,0 l/m 0,0 km/h (0 Bft) O-NO 67 0 min 0,0 UV-I 5,6 C 6,3 C 0,0 km/h (0 Bft)
16.05.2011 04:50 8,2 C 15,4 C 7,3 C 7,6 C 6,4 C 0,0 C 83 % 92 % 0 % 1021,8 hPa 0,0 l/m 0,0 km/h (0 Bft) O-NO 67 0 min 0,0 UV-I 5,5 C 6,4 C 0,0 km/h (0 Bft)
16.05.2011 04:55 8,3 C 15,4 C 7,3 C 7,7 C 6,4 C 0,0 C 84 % 93 % 0 % 1022,0 hPa 0,0 l/m 0,0 km/h (0 Bft) NO 45 0 min 0,0 UV-I 5,8 C 6,4 C 0,0 km/h (0 Bft)
16.05.2011 05:00 8,3 C 15,4 C 7,4 C 7,7 C 6,4 C 0,0 C 84 % 93 % 0 % 1022,0 hPa 0,0 l/m 0,5 km/h (0 Bft) S 180 0 min 0,0 UV-I 5,8 C 6,4 C 2,1 km/h (1 Bft)
16.05.2011 05:10 8,4 C 15,4 C 7,5 C 7,8 C 6,5 C 0,0 C 84 % 92 % 0 % 1022,0 hPa 0,0 l/m 0,0 km/h (0 Bft) N 0 0 min 0,0 UV-I 5,9 C 6,5 C 0,0 km/h (0 Bft)
16.05.2011 05:15 8,3 C 15,4 C 7,4 C 7,7 C 6,6 C 0,0 C 84 % 92 % 0 % 1021,8 hPa 0,0 l/m 0,0 km/h (0 Bft) N-NO 22 0 min 0,0 UV-I 5,8 C 6,6 C 0,0 km/h (0 Bft)
16.05.2011 05:20 8,3 C 15,3 C 7,5 C 7,7 C 6,6 C 0,0 C 84 % 92 % 0 % 1021,8 hPa 0,0 l/m 0,0 km/h (0 Bft) N-NO 22 0 min 0,0 UV-I 5,8 C 6,6 C 0,0 km/h (0 Bft)
16.05.2011 05:25 8,2 C 15,3 C 7,5 C 7,7 C 6,6 C 0,0 C 84 % 92 % 0 % 1021,8 hPa 0,0 l/m 0,0 km/h (0 Bft) N-NO 22 0 min 0,0 UV-I 5,7 C 6,6 C 0,0 km/h (0 Bft)
16.05.2011 05:30 8,2 C 15,4 C 7,5 C 7,7 C 6,6 C 0,0 C 84 % 92 % 0 % 1021,8 hPa 0,0 l/m 0,0 km/h (0 Bft) N-NO 22 0 min 0,0 UV-I 5,7 C 6,6 C 0,0 km/h (0 Bft)
16.05.2011 05:35 8,3 C 15,4 C 7,5 C 7,7 C 6,6 C 0,0 C 84 % 92 % 0 % 1021,8 hPa 0,0 l/m 0,0 km/h (0 Bft) SO 135 0 min 0,0 UV-I 5,8 C 6,6 C 0,0 km/h (0 Bft)
16.05.2011 05:40 8,3 C 15,3 C 7,5 C 7,8 C 6,7 C 0,0 C 84 % 92 % 0 % 1021,8 hPa 0,0 l/m 0,0 km/h (0 Bft) SO 135 0 min 0,0 UV-I 5,8 C 6,7 C 0,0 km/h (0 Bft)
16.05.2011 05:45 8,3 C 15,3 C 7,5 C 7,8 C 6,7 C 0,0 C 84 % 92 % 0 % 1021,8 hPa 0,0 l/m 0,0 km/h (0 Bft) SO 135 0 min 0,0 UV-I 5,8 C 6,7 C 0,0 km/h (0 Bft)
16.05.2011 05:50 8,2 C 15,3 C 7,5 C 7,7 C 6,8 C 0,0 C 84 % 92 % 0 % 1021,8 hPa 0,0 l/m 0,0 km/h (0 Bft) O 90 0 min 0,0 UV-I 5,7 C 6,8 C 0,0 km/h (0 Bft)
16.05.2011 05:55 8,3 C 15,3 C 7,5 C 7,8 C 6,8 C 0,0 C 85 % 92 % 0 % 1022,0 hPa 0,0 l/m 0,0 km/h (0 Bft) O-NO 67 0 min 0,0 UV-I 5,9 C 6,8 C 0,0 km/h (0 Bft)
16.05.2011 06:00 8,4 C 15,3 C 7,5 C 7,9 C 6,8 C 0,0 C 85 % 92 % 0 % 1022,0 hPa 0,0 l/m 0,2 km/h (0 Bft) S-SO 157 0 min 0,0 UV-I 6,0 C 6,8 C 0,0 km/h (0 Bft)
16.05.2011 06:10 8,4 C 15,3 C 7,6 C 7,9 C 6,9 C 0,0 C 84 % 92 % 0 % 1022,0 hPa 0,0 l/m 0,0 km/h (0 Bft) N 0 0 min 0,0 UV-I 5,9 C 6,9 C 0,0 km/h (0 Bft)
16.05.2011 06:15 8,5 C 15,3 C 7,6 C 8,0 C 7,0 C 0,0 C 85 % 92 % 0 % 1021,9 hPa 0,0 l/m 0,0 km/h (0 Bft) NO 45 0 min 0,0 UV-I 6,1 C 7,0 C 0,0 km/h (0 Bft)
16.05.2011 06:20 8,4 C 15,3 C 7,6 C 8,0 C 7,1 C 0,0 C 85 % 92 % 0 % 1021,9 hPa 0,0 l/m 0,0 km/h (0 Bft) S-SO 157 0 min 0,0 UV-I 6,0 C 7,1 C 0,0 km/h (0 Bft)
16.05.2011 06:25 8,4 C 15,3 C 7,6 C 8,0 C 7,1 C 0,0 C 85 % 92 % 0 % 1021,9 hPa 0,0 l/m 0,0 km/h (0 Bft) S-SO 157 0 min 0,0 UV-I 6,0 C 7,1 C 0,0 km/h (0 Bft)
16.05.2011 06:30 8,5 C 15,3 C 7,6 C 8,0 C 7,1 C 0,0 C 85 % 92 % 0 % 1021,9 hPa 0,0 l/m 0,0 km/h (0 Bft) O-SO 112 0 min 0,0 UV-I 6,1 C 7,1 C 0,0 km/h (0 Bft)
16.05.2011 06:35 8,4 C 15,2 C 7,6 C 8,0 C 7,2 C 0,0 C 85 % 92 % 0 % 1021,9 hPa 0,0 l/m 0,0 km/h (0 Bft) O-NO 67 0 min 0,0 UV-I 6,0 C 7,2 C 0,0 km/h (0 Bft)
16.05.2011 06:40 8,5 C 15,2 C 7,6 C 8,1 C 7,4 C 0,0 C 85 % 92 % 0 % 1021,9 hPa 0,0 l/m 0,0 km/h (0 Bft) O-NO 67 0 min 0,0 UV-I 6,1 C 7,4 C 0,0 km/h (0 Bft)
16.05.2011 06:45 8,7 C 15,2 C 7,6 C 8,3 C 7,5 C 0,0 C 85 % 92 % 0 % 1021,9 hPa 0,0 l/m 0,0 km/h (0 Bft) S 180 0 min 0,0 UV-I 6,3 C 7,5 C 0,0 km/h (0 Bft)
16.05.2011 06:50 8,7 C 15,2 C 7,6 C 8,3 C 7,6 C 0,0 C 85 % 92 % 0 % 1021,9 hPa 0,0 l/m 0,2 km/h (0 Bft) SW 225 0 min 0,0 UV-I 6,3 C 7,6 C 1,6 km/h (1 Bft)
16.05.2011 06:55 8,8 C 15,2 C 7,6 C 8,5 C 7,8 C 0,0 C 85 % 92 % 0 % 1022,0 hPa 0,0 l/m 0,3 km/h (0 Bft) W-SW 247 0 min 0,0 UV-I 6,4 C 7,8 C 3,2 km/h (1 Bft)
16.05.2011 07:00 8,8 C 15,1 C 7,6 C 8,5 C 7,9 C 0,0 C 84 % 92 % 0 % 1022,0 hPa 0,0 l/m 0,5 km/h (0 Bft) O-SO 112 0 min 0,0 UV-I 6,2 C 7,9 C 0,0 km/h (0 Bft)
16.05.2011 07:10 9,0 C 15,1 C 7,6 C 8,7 C 8,1 C 0,0 C 84 % 92 % 0 % 1022,0 hPa 0,0 l/m 1,4 km/h (1 Bft) N 0 0 min 0,0 UV-I 6,4 C 8,1 C 7,4 km/h (2 Bft)
16.05.2011 07:15 9,0 C 15,1 C 7,6 C 8,7 C 8,2 C 0,0 C 83 % 92 % 0 % 1021,9 hPa 0,0 l/m 2,3 km/h (1 Bft) SW 225 0 min 0,0 UV-I 6,3 C 8,2 C 4,5 km/h (1 Bft)
16.05.2011 07:20 9,1 C 15,1 C 7,6 C 8,8 C 8,3 C 0,0 C 83 % 92 % 0 % 1021,9 hPa 0,0 l/m 2,7 km/h (1 Bft) S 180 0 min 0,0 UV-I 6,4 C 8,3 C 3,2 km/h (1 Bft)
16.05.2011 07:25 9,2 C 15,1 C 7,6 C 9,0 C 8,6 C 0,0 C 83 % 92 % 0 % 1021,9 hPa 0,0 l/m 3,5 km/h (1 Bft) W-SW 247 0 min 0,0 UV-I 6,5 C 8,6 C 8,2 km/h (2 Bft)
16.05.2011 07:30 9,3 C 15,1 C 7,6 C 9,1 C 8,6 C 0,0 C 83 % 92 % 0 % 1021,9 hPa 0,0 l/m 3,4 km/h (1 Bft) W-SW 247 0 min 0,0 UV-I 6,6 C 8,6 C 0,0 km/h (0 Bft)
16.05.2011 07:35 9,3 C 15,1 C 7,6 C 9,2 C 8,9 C 0,0 C 82 % 92 % 0 % 1022,2 hPa 0,0 l/m 3,7 km/h (1 Bft) SW 225 0 min 0,0 UV-I 6,4 C 8,9 C 10,8 km/h (2 Bft)
16.05.2011 07:40 9,5 C 15,0 C 7,6 C 9,4 C 9,1 C 0,0 C 82 % 92 % 0 % 1022,2 hPa 0,0 l/m 3,2 km/h (1 Bft) S 180 0 min 0,0 UV-I 6,6 C 9,1 C 0,0 km/h (0 Bft)
16.05.2011 07:45 9,5 C 15,0 C 7,6 C 9,5 C 9,4 C 0,0 C 82 % 92 % 0 % 1022,2 hPa 0,0 l/m 3,2 km/h (1 Bft) W-SW 247 0 min 0,1 UV-I 6,6 C 9,4 C 4,7 km/h (1 Bft)
16.05.2011 07:50 9,6 C 15,0 C 7,6 C 9,6 C 9,6 C 0,0 C 82 % 92 % 0 % 1022,2 hPa 0,0 l/m 3,9 km/h (1 Bft) S-SW 202 0 min 0,1 UV-I 6,7 C 9,6 C 5,0 km/h (1 Bft)
16.05.2011 07:55 9,7 C 15,0 C 7,6 C 9,7 C 9,7 C 0,0 C 82 % 92 % 0 % 1022,2 hPa 0,0 l/m 4,5 km/h (1 Bft) S 180 0 min 0,1 UV-I 6,8 C 9,7 C 11,1 km/h (2 Bft)
16.05.2011 08:00 9,8 C 15,0 C 7,6 C 9,7 C 9,6 C 0,0 C 81 % 92 % 0 % 1022,2 hPa 0,0 l/m 5,0 km/h (1 Bft) S 180 0 min 0,1 UV-I 6,7 C 9,3 C 8,2 km/h (2 Bft)
16.05.2011 08:10 10,3 C 15,0 C 9,0 C 10,1 C 9,6 C 0,0 C 81 % 90 % 0 % 1022,2 hPa 0,0 l/m 6,6 km/h (2 Bft) N 0 0 min 0,2 UV-I 7,2 C 8,9 C 12,9 km/h (3 Bft)
16.05.2011 08:15 10,6 C 15,0 C 9,0 C 10,7 C 10,7 C 0,1 C 80 % 90 % 3 % 1022,4 hPa 0,0 l/m 5,8 km/h (2 Bft) SW 225 0 min 0,3 UV-I 7,3 C 10,7 C 9,8 km/h (2 Bft)
16.05.2011 08:20 10,8 C 15,0 C 9,0 C 11,6 C 11,6 C 0,8 C 79 % 90 % 21 % 1022,4 hPa 0,0 l/m 6,0 km/h (2 Bft) SW 225 0 min 0,3 UV-I 7,3 C 11,6 C 7,1 km/h (2 Bft)
16.05.2011 08:25 10,9 C 15,0 C 9,0 C 13,0 C 13,0 C 2,1 C 78 % 90 % 55 % 1022,4 hPa 0,0 l/m 5,6 km/h (1 Bft) W 270 0 min 0,3 UV-I 7,2 C 13,0 C 7,1 km/h (2 Bft)
16.05.2011 08:30 10,9 C 15,0 C 9,0 C 12,6 C 12,6 C 1,7 C 78 % 90 % 45 % 1022,4 hPa 0,0 l/m 5,8 km/h (2 Bft) SW 225 0 min 0,3 UV-I 7,2 C 12,6 C 5,3 km/h (1 Bft)
16.05.2011 08:35 10,9 C 15,0 C 9,0 C 12,0 C 12,0 C 1,1 C 78 % 90 % 29 % 1022,3 hPa 0,0 l/m 6,3 km/h (2 Bft) SW 225 0 min 0,3 UV-I 7,2 C 12,0 C 6,0 km/h (2 Bft)
16.05.2011 08:40 10,8 C 15,0 C 9,0 C 11,8 C 11,8 C 1,0 C 78 % 90 % 26 % 1022,3 hPa 0,0 l/m 5,8 km/h (2 Bft) S-SW 202 0 min 0,3 UV-I 7,1 C 11,8 C 5,8 km/h (2 Bft)
16.05.2011 08:45 10,9 C 15,0 C 9,0 C 12,2 C 12,2 C 1,3 C 78 % 90 % 34 % 1022,3 hPa 0,0 l/m 5,0 km/h (1 Bft) W-SW 247 0 min 0,4 UV-I 7,2 C 12,2 C 7,4 km/h (2 Bft)
16.05.2011 08:50 11,0 C 15,0 C 9,0 C 12,2 C 12,2 C 1,2 C 78 % 90 % 32 % 1022,3 hPa 0,0 l/m 4,3 km/h (1 Bft) N-NO 22 0 min 0,4 UV-I 7,3 C 12,2 C 6,1 km/h (2 Bft)
16.05.2011 08:55 11,1 C 15,0 C 9,0 C 12,0 C 12,0 C 0,9 C 77 % 90 % 24 % 1022,4 hPa 0,0 l/m 5,5 km/h (1 Bft) SW 225 0 min 0,4 UV-I 7,2 C 12,0 C 6,6 km/h (2 Bft)
16.05.2011 09:00 11,1 C 15,0 C 9,0 C 11,8 C 11,8 C 0,7 C 78 % 90 % 18 % 1022,4 hPa 0,0 l/m 6,1 km/h (2 Bft) S 180 0 min 0,4 UV-I 7,4 C 11,8 C 8,9 km/h (2 Bft)
16.05.2011 09:10 11,2 C 14,9 C 9,0 C 11,9 C 11,9 C 0,7 C 77 % 90 % 18 % 1022,4 hPa 0,0 l/m 6,6 km/h (2 Bft) N 0 0 min 0,4 UV-I 7,3 C 11,9 C 8,0 km/h (2 Bft)
16.05.2011 09:15 11,2 C 14,9 C 10,3 C 11,6 C 11,6 C 0,4 C 77 % 87 % 11 % 1022,8 hPa 0,0 l/m 6,8 km/h (2 Bft) S-SO 157 0 min 0,5 UV-I 7,3 C 11,6 C 11,3 km/h (2 Bft)
16.05.2011 09:20 11,2 C 14,9 C 10,3 C 11,4 C 11,4 C 0,2 C 76 % 86 % 5 % 1022,8 hPa 0,0 l/m 7,6 km/h (2 Bft) SW 225 0 min 0,5 UV-I 7,1 C 11,4 C 7,2 km/h (2 Bft)
16.05.2011 09:25 11,1 C 14,9 C 10,1 C 11,3 C 10,9 C 0,2 C 76 % 86 % 5 % 1022,8 hPa 0,0 l/m 8,7 km/h (2 Bft) SW 225 0 min 0,4 UV-I 7,0 C 10,9 C 17,7 km/h (3 Bft)
16.05.2011 09:30 11,1 C 14,9 C 10,1 C 11,1 C 10,7 C 0,0 C 76 % 86 % 0 % 1022,8 hPa 0,0 l/m 9,0 km/h (2 Bft) S 180 0 min 0,4 UV-I 7,0 C 10,7 C 11,4 km/h (2 Bft)
16.05.2011 09:35 11,0 C 14,9 C 10,1 C 10,9 C 10,4 C 0,0 C 76 % 86 % 0 % 1022,9 hPa 0,0 l/m 8,4 km/h (2 Bft) SW 225 0 min 0,3 UV-I 6,9 C 10,4 C 10,5 km/h (2 Bft)
16.05.2011 09:40 11,1 C 14,9 C 10,1 C 10,9 C 10,6 C 0,0 C 76 % 85 % 0 % 1022,9 hPa 0,0 l/m 7,6 km/h (2 Bft) SW 225 0 min 0,3 UV-I 7,0 C 10,6 C 9,5 km/h (2 Bft)
16.05.2011 09:45 11,0 C 14,9 C 10,1 C 10,9 C 10,7 C 0,0 C 77 % 85 % 0 % 1022,9 hPa 0,0 l/m 6,4 km/h (2 Bft) SW 225 0 min 0,4 UV-I 7,1 C 10,7 C 7,4 km/h (2 Bft)
16.05.2011 09:50 11,1 C 14,9 C 10,1 C 11,0 C 10,9 C 0,0 C 77 % 85 % 0 % 1022,9 hPa 0,0 l/m 6,1 km/h (2 Bft) S-SW 202 0 min 0,4 UV-I 7,2 C 10,9 C 10,0 km/h (2 Bft)
16.05.2011 09:55 11,2 C 14,9 C 10,1 C 11,5 C 11,5 C 0,3 C 77 % 85 % 8 % 1022,5 hPa 0,0 l/m 5,3 km/h (1 Bft) S-SO 157 0 min 0,5 UV-I 7,3 C 11,5 C 6,6 km/h (2 Bft)
16.05.2011 10:00 11,2 C 14,9 C 10,1 C 11,6 C 11,6 C 0,4 C 76 % 85 % 11 % 1022,5 hPa 0,0 l/m 5,6 km/h (1 Bft) S 180 0 min 0,5 UV-I 7,1 C 11,6 C 7,2 km/h (2 Bft)
16.05.2011 10:10 11,2 C 14,9 C 10,1 C 12,0 C 12,0 C 0,8 C 76 % 85 % 21 % 1022,5 hPa 0,0 l/m 4,5 km/h (1 Bft) N 0 0 min 0,4 UV-I 7,1 C 12,0 C 4,5 km/h (1 Bft)
16.05.2011 10:15 11,5 C 14,9 C 10,1 C 12,1 C 12,1 C 0,6 C 76 % 85 % 16 % 1022,5 hPa 0,0 l/m 5,3 km/h (1 Bft) SO 135 0 min 0,7 UV-I 7,4 C 12,1 C 2,9 km/h (1 Bft)
16.05.2011 10:20 11,5 C 15,0 C 10,1 C 12,4 C 12,4 C 0,9 C 76 % 85 % 24 % 1022,5 hPa 0,0 l/m 4,8 km/h (1 Bft) SW 225 0 min 0,7 UV-I 7,4 C 12,4 C 4,0 km/h (1 Bft)
16.05.2011 10:25 11,6 C 15,0 C 10,1 C 13,0 C 13,0 C 1,4 C 74 % 85 % 37 % 1022,5 hPa 0,0 l/m 5,0 km/h (1 Bft) SW 225 0 min 1,0 UV-I 7,1 C 13,0 C 5,0 km/h (1 Bft)
16.05.2011 10:30 11,7 C 15,0 C 10,1 C 13,1 C 13,1 C 1,4 C 74 % 85 % 37 % 1022,5 hPa 0,0 l/m 5,3 km/h (1 Bft) SW 225 0 min 1,0 UV-I 7,2 C 13,1 C 5,5 km/h (1 Bft)
16.05.2011 10:35 11,9 C 15,0 C 10,1 C 13,2 C 13,2 C 1,3 C 73 % 85 % 34 % 1022,4 hPa 0,0 l/m 5,8 km/h (2 Bft) SW 225 0 min 0,9 UV-I 7,2 C 13,2 C 4,5 km/h (1 Bft)
16.05.2011 10:40 11,9 C 14,9 C 10,1 C 13,5 C 13,5 C 1,6 C 72 % 85 % 42 % 1022,4 hPa 0,0 l/m 6,0 km/h (2 Bft) W-NW 292 0 min 0,9 UV-I 7,0 C 13,5 C 7,1 km/h (2 Bft)
16.05.2011 10:45 12,0 C 14,9 C 10,1 C 14,1 C 14,1 C 2,1 C 72 % 85 % 55 % 1022,4 hPa 0,0 l/m 5,5 km/h (1 Bft) W-SW 247 0 min 1,3 UV-I 7,1 C 14,1 C 11,6 km/h (2 Bft)
16.05.2011 10:50 12,2 C 14,9 C 10,1 C 14,3 C 14,3 C 2,1 C 72 % 85 % 55 % 1022,4 hPa 0,0 l/m 5,5 km/h (1 Bft) SW 225 0 min 1,3 UV-I 7,3 C 14,3 C 4,5 km/h (1 Bft)
16.05.2011 10:55 12,3 C 14,9 C 10,1 C 14,2 C 14,2 C 1,9 C 71 % 85 % 50 % 1022,4 hPa 0,0 l/m 5,6 km/h (1 Bft) SO 135 0 min 1,4 UV-I 7,2 C 14,2 C 7,4 km/h (2 Bft)
16.05.2011 11:00 12,4 C 14,9 C 10,1 C 14,7 C 14,7 C 2,3 C 70 % 85 % 61 % 1022,4 hPa 0,0 l/m 4,8 km/h (1 Bft) SW 225 0 min 1,4 UV-I 7,1 C 14,7 C 7,1 km/h (2 Bft)
16.05.2011 11:10 12,3 C 14,9 C 10,1 C 14,1 C 13,6 C 1,8 C 70 % 85 % 47 % 1022,4 hPa 0,0 l/m 7,7 km/h (2 Bft) N 0 0 min 0,8 UV-I 7,0 C 13,6 C 10,6 km/h (2 Bft)
16.05.2011 11:15 12,4 C 14,9 C 10,1 C 13,6 C 13,6 C 1,2 C 69 % 85 % 32 % 1022,2 hPa 0,0 l/m 8,2 km/h (2 Bft) SW 225 0 min 1,1 UV-I 6,9 C 13,6 C 12,1 km/h (2 Bft)
16.05.2011 11:20 12,5 C 14,9 C 10,1 C 13,7 C 13,5 C 1,2 C 69 % 85 % 32 % 1022,2 hPa 0,0 l/m 8,5 km/h (2 Bft) S 180 0 min 1,1 UV-I 7,0 C 13,5 C 14,3 km/h (3 Bft)
16.05.2011 11:25 12,7 C 14,9 C 10,1 C 14,0 C 14,2 C 1,3 C 68 % 85 % 34 % 1022,2 hPa 0,0 l/m 8,0 km/h (2 Bft) W 270 0 min 1,0 UV-I 6,9 C 14,2 C 18,3 km/h (3 Bft)
16.05.2011 11:30 12,6 C 14,9 C 10,1 C 14,0 C 13,8 C 1,4 C 68 % 85 % 37 % 1022,2 hPa 0,0 l/m 8,2 km/h (2 Bft) S 180 0 min 1,0 UV-I 6,9 C 13,8 C 12,4 km/h (3 Bft)
16.05.2011 11:35 12,6 C 14,9 C 10,1 C 13,8 C 13,8 C 1,2 C 68 % 85 % 32 % 1022,4 hPa 0,0 l/m 7,4 km/h (2 Bft) S-SO 157 0 min 0,8 UV-I 6,9 C 13,8 C 5,6 km/h (1 Bft)
16.05.2011 11:40 12,5 C 14,9 C 10,1 C 13,8 C 13,8 C 1,3 C 68 % 85 % 34 % 1022,4 hPa 0,0 l/m 5,8 km/h (2 Bft) W-SW 247 0 min 0,8 UV-I 6,8 C 13,8 C 4,2 km/h (1 Bft)
16.05.2011 11:45 12,5 C 14,9 C 10,1 C 13,6 C 13,6 C 1,1 C 67 % 85 % 29 % 1022,4 hPa 0,0 l/m 4,8 km/h (1 Bft) S-SO 157 0 min 0,7 UV-I 6,5 C 13,6 C 3,1 km/h (1 Bft)
16.05.2011 11:50 12,7 C 14,9 C 10,1 C 14,0 C 14,0 C 1,3 C 68 % 85 % 34 % 1022,4 hPa 0,0 l/m 4,3 km/h (1 Bft) O-SO 112 0 min 0,7 UV-I 6,9 C 14,0 C 6,8 km/h (2 Bft)
16.05.2011 11:55 12,9 C 14,9 C 10,1 C 14,9 C 14,9 C 2,0 C 67 % 85 % 53 % 1022,2 hPa 0,0 l/m 5,8 km/h (2 Bft) W-SW 247 0 min 1,4 UV-I 6,9 C 14,9 C 4,0 km/h (1 Bft)
16.05.2011 12:00 13,1 C 14,9 C 10,1 C 14,9 C 14,9 C 1,8 C 67 % 85 % 47 % 1022,2 hPa 0,0 l/m 6,4 km/h (2 Bft) S-SW 202 0 min 1,4 UV-I 7,1 C 14,9 C 11,7 km/h (2 Bft)
16.05.2011 12:10 13,2 C 14,9 C 10,1 C 15,4 C 15,4 C 2,2 C 67 % 85 % 58 % 1022,2 hPa 0,0 l/m 6,3 km/h (2 Bft) N 0 0 min 1,6 UV-I 7,2 C 15,4 C 10,9 km/h (2 Bft)
16.05.2011 12:15 13,5 C 14,9 C 12,4 C 15,3 C 15,2 C 1,8 C 67 % 77 % 47 % 1022,1 hPa 0,0 l/m 8,4 km/h (2 Bft) SW 225 0 min 2,0 UV-I 7,5 C 15,2 C 8,2 km/h (2 Bft)
16.05.2011 12:20 13,4 C 15,0 C 12,4 C 15,3 C 15,3 C 1,9 C 67 % 77 % 50 % 1022,1 hPa 0,0 l/m 8,9 km/h (2 Bft) S 180 0 min 2,0 UV-I 7,4 C 15,3 C 8,0 km/h (2 Bft)
16.05.2011 12:25 13,4 C 14,9 C 12,5 C 15,1 C 14,9 C 1,7 C 66 % 77 % 45 % 1022,1 hPa 0,0 l/m 8,2 km/h (2 Bft) W-SW 247 0 min 1,2 UV-I 7,2 C 14,9 C 7,1 km/h (2 Bft)
16.05.2011 12:30 13,3 C 14,9 C 12,5 C 14,4 C 14,4 C 1,1 C 67 % 77 % 29 % 1022,1 hPa 0,0 l/m 7,6 km/h (2 Bft) N-NW 337 0 min 1,2 UV-I 7,3 C 14,4 C 9,7 km/h (2 Bft)
16.05.2011 12:35 13,1 C 14,9 C 12,5 C 13,9 C 13,9 C 0,8 C 67 % 77 % 21 % 1021,9 hPa 0,0 l/m 6,8 km/h (2 Bft) SW 225 0 min 0,6 UV-I 7,1 C 13,9 C 8,7 km/h (2 Bft)
16.05.2011 12:40 12,9 C 14,9 C 12,5 C 13,3 C 13,3 C 0,4 C 68 % 77 % 11 % 1021,9 hPa 0,0 l/m 6,6 km/h (2 Bft) W-SW 247 0 min 0,6 UV-I 7,1 C 13,3 C 7,1 km/h (2 Bft)
16.05.2011 12:45 12,8 C 14,9 C 12,5 C 12,8 C 12,7 C 0,0 C 68 % 77 % 0 % 1021,9 hPa 0,0 l/m 6,3 km/h (2 Bft) S 180 0 min 0,2 UV-I 7,0 C 12,7 C 8,0 km/h (2 Bft)
16.05.2011 12:50 12,7 C 14,9 C 12,5 C 12,6 C 12,5 C 0,0 C 69 % 77 % 0 % 1021,9 hPa 0,0 l/m 6,3 km/h (2 Bft) S 180 0 min 0,2 UV-I 7,2 C 12,5 C 8,2 km/h (2 Bft)
16.05.2011 12:55 12,7 C 14,9 C 12,5 C 12,5 C 12,2 C 0,0 C 69 % 77 % 0 % 1022,6 hPa 0,0 l/m 6,4 km/h (2 Bft) S-SW 202 0 min 0,2 UV-I 7,2 C 12,2 C 8,0 km/h (2 Bft)
16.05.2011 13:00 12,7 C 14,9 C 12,5 C 12,6 C 12,3 C 0,0 C 69 % 77 % 0 % 1022,6 hPa 0,0 l/m 6,1 km/h (2 Bft) S 180 0 min 0,2 UV-I 7,2 C 12,3 C 4,8 km/h (1 Bft)
16.05.2011 13:10 12,8 C 15,0 C 12,5 C 13,6 C 13,6 C 0,8 C 69 % 77 % 21 % 1022,6 hPa 0,0 l/m 4,0 km/h (1 Bft) N 0 0 min 1,0 UV-I 7,3 C 13,6 C 6,3 km/h (2 Bft)
16.05.2011 13:15 12,8 C 15,0 C 12,5 C 13,8 C 13,8 C 1,0 C 68 % 77 % 26 % 1022,0 hPa 0,0 l/m 4,0 km/h (1 Bft) SW 225 0 min 0,6 UV-I 7,0 C 13,8 C 9,2 km/h (2 Bft)
16.05.2011 13:20 12,8 C 15,0 C 12,5 C 13,7 C 13,7 C 0,9 C 68 % 77 % 24 % 1022,0 hPa 0,0 l/m 3,7 km/h (1 Bft) S-SO 157 0 min 0,6 UV-I 7,0 C 13,7 C 5,1 km/h (1 Bft)
16.05.2011 13:25 12,9 C 15,0 C 12,5 C 13,7 C 13,7 C 0,8 C 68 % 77 % 21 % 1022,0 hPa 0,0 l/m 3,4 km/h (1 Bft) SW 225 0 min 0,5 UV-I 7,1 C 13,7 C 9,5 km/h (2 Bft)
16.05.2011 13:30 13,1 C 15,0 C 12,5 C 13,9 C 13,9 C 0,8 C 68 % 77 % 21 % 1022,0 hPa 0,0 l/m 2,9 km/h (1 Bft) SW 225 0 min 0,5 UV-I 7,3 C 13,9 C 5,6 km/h (1 Bft)
16.05.2011 13:35 13,3 C 15,0 C 12,5 C 14,9 C 14,9 C 1,6 C 67 % 77 % 42 % 1021,6 hPa 0,0 l/m 4,2 km/h (1 Bft) SW 225 0 min 1,7 UV-I 7,3 C 14,9 C 3,4 km/h (1 Bft)
16.05.2011 13:40 13,5 C 15,0 C 12,5 C 15,5 C 15,5 C 2,0 C 66 % 77 % 53 % 1021,6 hPa 0,0 l/m 3,9 km/h (1 Bft) NW 315 0 min 1,7 UV-I 7,3 C 15,5 C 1,9 km/h (1 Bft)
16.05.2011 13:45 13,3 C 15,0 C 12,5 C 15,5 C 15,5 C 2,2 C 66 % 77 % 58 % 1021,6 hPa 0,0 l/m 4,2 km/h (1 Bft) SO 135 0 min 0,6 UV-I 7,1 C 15,5 C 6,4 km/h (2 Bft)
16.05.2011 13:50 13,2 C 15,0 C 12,5 C 14,8 C 14,8 C 1,6 C 66 % 77 % 42 % 1021,6 hPa 0,0 l/m 5,5 km/h (1 Bft) S-SW 202 0 min 0,6 UV-I 7,0 C 14,8 C 8,4 km/h (2 Bft)
16.05.2011 13:55 13,3 C 15,0 C 12,5 C 14,2 C 13,7 C 0,9 C 66 % 77 % 24 % 1021,5 hPa 0,0 l/m 8,0 km/h (2 Bft) S-SO 157 0 min 0,4 UV-I 7,1 C 13,7 C 7,4 km/h (2 Bft)
16.05.2011 14:00 13,5 C 15,0 C 12,5 C 13,7 C 13,7 C 0,2 C 67 % 77 % 5 % 1021,5 hPa 0,0 l/m 7,9 km/h (2 Bft) W-SW 247 0 min 0,4 UV-I 7,5 C 13,7 C 7,9 km/h (2 Bft)
16.05.2011 14:10 14,0 C 15,1 C 12,5 C 16,7 C 16,7 C 2,7 C 64 % 77 % 71 % 1021,5 hPa 0,0 l/m 5,5 km/h (1 Bft) N 0 0 min 2,6 UV-I 7,3 C 16,7 C 6,0 km/h (2 Bft)
16.05.2011 14:15 13,9 C 15,1 C 12,5 C 16,2 C 16,2 C 2,3 C 65 % 77 % 61 % 1021,4 hPa 0,0 l/m 6,4 km/h (2 Bft) S 180 0 min 1,0 UV-I 7,4 C 16,2 C 8,2 km/h (2 Bft)
16.05.2011 14:20 13,9 C 15,1 C 12,5 C 15,6 C 15,6 C 1,7 C 65 % 77 % 45 % 1021,4 hPa 0,0 l/m 6,8 km/h (2 Bft) W-SW 247 0 min 1,0 UV-I 7,4 C 15,6 C 7,1 km/h (2 Bft)
16.05.2011 14:25 13,9 C 15,1 C 12,5 C 15,2 C 14,8 C 1,3 C 65 % 77 % 34 % 1021,4 hPa 0,0 l/m 9,2 km/h (2 Bft) SW 225 0 min 0,9 UV-I 7,4 C 14,8 C 20,3 km/h (4 Bft)
16.05.2011 14:30 14,0 C 15,1 C 12,5 C 14,9 C 14,7 C 0,9 C 64 % 77 % 24 % 1021,4 hPa 0,0 l/m 10,3 km/h (2 Bft) S-SW 202 0 min 0,9 UV-I 7,3 C 14,7 C 13,8 km/h (3 Bft)
16.05.2011 14:35 14,1 C 15,1 C 12,5 C 15,4 C 15,7 C 1,3 C 64 % 77 % 34 % 1021,2 hPa 0,0 l/m 8,2 km/h (2 Bft) W 270 0 min 1,1 UV-I 7,4 C 15,7 C 9,7 km/h (2 Bft)
16.05.2011 14:40 14,2 C 15,1 C 12,5 C 15,9 C 15,9 C 1,7 C 64 % 77 % 45 % 1021,2 hPa 0,0 l/m 7,2 km/h (2 Bft) S-SW 202 0 min 1,1 UV-I 7,5 C 15,9 C 13,0 km/h (3 Bft)
16.05.2011 14:45 14,4 C 15,1 C 12,5 C 16,2 C 16,2 C 1,8 C 64 % 77 % 47 % 1021,2 hPa 0,0 l/m 7,2 km/h (2 Bft) SW 225 0 min 1,6 UV-I 7,7 C 16,2 C 10,6 km/h (2 Bft)
16.05.2011 14:50 14,5 C 15,0 C 12,5 C 16,4 C 16,4 C 1,9 C 64 % 77 % 50 % 1021,2 hPa 0,0 l/m 8,2 km/h (2 Bft) SW 225 0 min 1,6 UV-I 7,8 C 16,4 C 13,5 km/h (3 Bft)
16.05.2011 14:55 14,5 C 15,0 C 12,5 C 16,2 C 16,1 C 1,7 C 63 % 77 % 45 % 1021,1 hPa 0,0 l/m 9,8 km/h (2 Bft) S-SW 202 0 min 1,3 UV-I 7,5 C 16,1 C 13,7 km/h (3 Bft)
16.05.2011 15:00 14,5 C 15,0 C 12,5 C 16,0 C 15,8 C 1,5 C 64 % 77 % 39 % 1021,1 hPa 0,0 l/m 10,0 km/h (2 Bft) S 180 0 min 1,3 UV-I 7,8 C 15,8 C 10,3 km/h (2 Bft)
16.05.2011 15:10 14,5 C 15,0 C 12,5 C 15,7 C 15,7 C 1,2 C 64 % 77 % 32 % 1021,1 hPa 0,0 l/m 7,4 km/h (2 Bft) N 0 0 min 1,0 UV-I 7,8 C 15,7 C 6,1 km/h (2 Bft)
16.05.2011 15:15 14,3 C 15,1 C 12,5 C 15,5 C 15,5 C 1,2 C 64 % 77 % 32 % 1021,2 hPa 0,0 l/m 7,1 km/h (2 Bft) W-SW 247 0 min 0,6 UV-I 7,6 C 15,5 C 10,0 km/h (2 Bft)
16.05.2011 15:20 14,3 C 15,1 C 12,5 C 15,1 C 15,1 C 0,8 C 64 % 77 % 21 % 1021,2 hPa 0,0 l/m 7,2 km/h (2 Bft) S 180 0 min 0,6 UV-I 7,6 C 15,1 C 8,5 km/h (2 Bft)
16.05.2011 15:25 14,1 C 15,1 C 12,5 C 14,6 C 14,6 C 0,5 C 63 % 77 % 13 % 1021,2 hPa 0,0 l/m 7,6 km/h (2 Bft) S-SW 202 0 min 0,4 UV-I 7,2 C 14,6 C 4,2 km/h (1 Bft)
16.05.2011 15:30 14,0 C 15,1 C 12,5 C 14,6 C 14,6 C 0,6 C 64 % 77 % 16 % 1021,2 hPa 0,0 l/m 6,4 km/h (2 Bft) S 180 0 min 0,4 UV-I 7,3 C 14,6 C 4,8 km/h (1 Bft)
16.05.2011 15:35 14,0 C 15,1 C 12,5 C 14,3 C 14,3 C 0,3 C 64 % 77 % 8 % 1021,1 hPa 0,0 l/m 4,2 km/h (1 Bft) W-NW 292 0 min 0,3 UV-I 7,3 C 14,3 C 4,5 km/h (1 Bft)
16.05.2011 15:40 13,9 C 15,2 C 12,5 C 14,1 C 14,1 C 0,2 C 64 % 77 % 5 % 1021,1 hPa 0,0 l/m 3,9 km/h (1 Bft) S-SO 157 0 min 0,3 UV-I 7,2 C 14,1 C 5,1 km/h (1 Bft)
16.05.2011 15:45 13,9 C 15,2 C 12,5 C 14,0 C 14,0 C 0,1 C 65 % 77 % 3 % 1021,1 hPa 0,0 l/m 3,2 km/h (1 Bft) S 180 0 min 0,3 UV-I 7,4 C 14,0 C 5,5 km/h (1 Bft)
16.05.2011 15:50 13,9 C 15,2 C 12,5 C 14,0 C 14,0 C 0,1 C 65 % 77 % 3 % 1021,1 hPa 0,0 l/m 2,9 km/h (1 Bft) W-SW 247 0 min 0,3 UV-I 7,4 C 14,0 C 7,9 km/h (2 Bft)
16.05.2011 15:55 13,8 C 15,2 C 12,5 C 14,0 C 14,0 C 0,2 C 66 % 77 % 5 % 1021,1 hPa 0,0 l/m 2,3 km/h (1 Bft) SW 225 0 min 0,3 UV-I 7,6 C 14,0 C 4,0 km/h (1 Bft)
16.05.2011 16:00 13,9 C 15,2 C 12,5 C 14,2 C 14,2 C 0,3 C 65 % 77 % 8 % 1021,1 hPa 0,0 l/m 1,9 km/h (1 Bft) S-SW 202 0 min 0,3 UV-I 7,4 C 14,2 C 0,0 km/h (0 Bft)
16.05.2011 16:10 14,0 C 15,2 C 12,5 C 14,6 C 14,6 C 0,6 C 66 % 77 % 16 % 1021,1 hPa 0,0 l/m 5,0 km/h (1 Bft) N 0 0 min 0,4 UV-I 7,7 C 14,6 C 4,8 km/h (1 Bft)
16.05.2011 16:15 14,3 C 15,2 C 12,5 C 15,1 C 15,1 C 0,8 C 65 % 77 % 21 % 1020,9 hPa 0,0 l/m 6,0 km/h (2 Bft) SW 225 0 min 0,7 UV-I 7,8 C 15,1 C 5,5 km/h (1 Bft)
16.05.2011 16:20 14,4 C 15,2 C 12,5 C 15,5 C 15,5 C 1,1 C 64 % 77 % 29 % 1020,9 hPa 0,0 l/m 5,0 km/h (1 Bft) O 90 0 min 0,7 UV-I 7,7 C 15,5 C 3,5 km/h (1 Bft)
16.05.2011 16:25 14,5 C 15,2 C 13,7 C 16,0 C 16,0 C 1,5 C 65 % 74 % 39 % 1020,9 hPa 0,0 l/m 5,6 km/h (1 Bft) S-SO 157 0 min 0,7 UV-I 8,0 C 16,0 C 5,6 km/h (1 Bft)
16.05.2011 16:30 14,5 C 15,2 C 13,7 C 16,0 C 16,0 C 1,5 C 64 % 74 % 39 % 1020,9 hPa 0,0 l/m 5,6 km/h (1 Bft) S 180 0 min 0,7 UV-I 7,8 C 16,0 C 0,0 km/h (0 Bft)
16.05.2011 16:35 14,4 C 15,3 C 13,7 C 15,9 C 15,9 C 1,5 C 65 % 74 % 39 % 1020,8 hPa 0,0 l/m 4,2 km/h (1 Bft) O-NO 67 0 min 0,3 UV-I 7,9 C 15,9 C 6,8 km/h (2 Bft)
16.05.2011 16:40 14,5 C 15,2 C 13,7 C 15,6 C 15,6 C 1,1 C 64 % 74 % 29 % 1020,8 hPa 0,0 l/m 4,2 km/h (1 Bft) S 180 0 min 0,3 UV-I 7,8 C 15,6 C 5,3 km/h (1 Bft)
16.05.2011 16:45 14,4 C 15,3 C 13,7 C 15,4 C 15,4 C 1,0 C 64 % 73 % 26 % 1020,8 hPa 0,0 l/m 4,5 km/h (1 Bft) S-SO 157 0 min 0,4 UV-I 7,7 C 15,4 C 5,8 km/h (2 Bft)
16.05.2011 16:50 14,3 C 15,3 C 13,6 C 15,4 C 15,4 C 1,1 C 64 % 72 % 29 % 1020,8 hPa 0,0 l/m 4,2 km/h (1 Bft) SW 225 0 min 0,4 UV-I 7,6 C 15,4 C 10,6 km/h (2 Bft)
16.05.2011 16:55 14,5 C 15,3 C 13,6 C 15,4 C 15,4 C 0,9 C 64 % 74 % 24 % 1020,4 hPa 0,0 l/m 3,1 km/h (1 Bft) W-SW 247 0 min 0,4 UV-I 7,8 C 15,4 C 2,7 km/h (1 Bft)
16.05.2011 17:00 14,4 C 15,3 C 13,6 C 15,6 C 15,6 C 1,2 C 65 % 74 % 32 % 1020,4 hPa 0,0 l/m 3,5 km/h (1 Bft) SO 135 0 min 0,4 UV-I 7,9 C 15,6 C 5,5 km/h (1 Bft)
16.05.2011 17:10 14,5 C 15,3 C 13,9 C 15,6 C 15,6 C 1,1 C 64 % 73 % 29 % 1020,4 hPa 0,0 l/m 7,4 km/h (2 Bft) N 0 0 min 0,4 UV-I 7,8 C 15,6 C 10,5 km/h (2 Bft)
16.05.2011 17:15 14,4 C 15,3 C 13,9 C 15,5 C 15,5 C 1,1 C 64 % 72 % 29 % 1020,8 hPa 0,0 l/m 6,8 km/h (2 Bft) S 180 0 min 0,2 UV-I 7,7 C 15,5 C 6,4 km/h (2 Bft)
16.05.2011 17:20 14,4 C 15,3 C 13,9 C 15,3 C 15,3 C 0,9 C 64 % 72 % 24 % 1020,8 hPa 0,0 l/m 5,8 km/h (2 Bft) SW 225 0 min 0,2 UV-I 7,7 C 15,3 C 12,9 km/h (3 Bft)
16.05.2011 17:25 14,4 C 15,3 C 13,9 C 15,1 C 15,1 C 0,7 C 64 % 73 % 18 % 1020,8 hPa 0,0 l/m 5,5 km/h (1 Bft) W-SW 247 0 min 0,2 UV-I 7,7 C 15,1 C 8,5 km/h (2 Bft)
16.05.2011 17:30 14,4 C 15,3 C 13,9 C 15,0 C 15,0 C 0,6 C 65 % 73 % 16 % 1020,8 hPa 0,0 l/m 6,0 km/h (2 Bft) SW 225 0 min 0,2 UV-I 7,9 C 15,0 C 9,2 km/h (2 Bft)
16.05.2011 17:35 14,3 C 15,3 C 13,8 C 14,4 C 14,4 C 0,1 C 65 % 74 % 3 % 1020,5 hPa 0,0 l/m 7,6 km/h (2 Bft) S-SO 157 0 min 0,1 UV-I 7,8 C 14,4 C 23,8 km/h (4 Bft)
16.05.2011 17:40 14,3 C 15,3 C 13,6 C 14,3 C 14,1 C 0,0 C 66 % 74 % 0 % 1020,5 hPa 0,0 l/m 8,4 km/h (2 Bft) O 90 0 min 0,1 UV-I 8,0 C 14,1 C 10,1 km/h (2 Bft)
16.05.2011 17:42 14,3 C 15,3 C 13,6 C 12,6 C 13,8 C 0,0 C 67 % 75 % 0 % 1020,5 hPa 0,0 l/m 8,0 km/h (2 Bft) SW 225 0 min 0,1 UV-I 8,3 C 13,8 C 14,3 km/h (3 Bft)
16.05.2011 17:44 14,3 C 15,3 C 13,6 C 14,1 C 13,8 C 0,0 C 67 % 75 % 0 % 1020,5 hPa 0,0 l/m 8,0 km/h (2 Bft) SW 225 0 min 0,1 UV-I 8,3 C 13,8 C 14,3 km/h (3 Bft)
16.05.2011 17:47 14,1 C 15,3 C 13,5 C 14,0 C 13,7 C 0,0 C 68 % 76 % 0 % 1020,5 hPa 0,0 l/m 6,3 km/h (2 Bft) S 180 0 min 0,1 UV-I 8,3 C 13,7 C 7,1 km/h (2 Bft)
16.05.2011 17:52 14,0 C 15,4 C 13,5 C 13,6 C 12,9 C 0,0 C 69 % 76 % 0 % 1020,6 hPa 0,0 l/m 6,9 km/h (2 Bft) S 180 0 min 0,0 UV-I 8,4 C 12,9 C 8,9 km/h (2 Bft)
16.05.2011 17:57 14,0 C 15,4 C 13,2 C 13,6 C 12,7 C 0,0 C 70 % 77 % 0 % 1020,6 hPa 0,0 l/m 6,9 km/h (2 Bft) W-SW 247 0 min 0,0 UV-I 8,6 C 12,7 C 15,0 km/h (3 Bft)
16.05.2011 18:02 13,8 C 15,3 C 13,1 C 13,5 C 12,6 C 0,0 C 70 % 78 % 0 % 1020,6 hPa 0,0 l/m 7,7 km/h (2 Bft) SW 225 0 min 0,0 UV-I 8,4 C 12,6 C 8,0 km/h (2 Bft)
16.05.2011 18:07 13,9 C 15,3 C 13,1 C 13,5 C 12,7 C 0,0 C 71 % 78 % 0 % 1020,6 hPa 0,0 l/m 7,1 km/h (2 Bft) S 180 0 min 0,0 UV-I 8,7 C 12,7 C 6,6 km/h (2 Bft)
16.05.2011 18:12 13,8 C 15,4 C 13,1 C 13,5 C 12,9 C 0,0 C 71 % 79 % 0 % 1020,7 hPa 0,0 l/m 6,1 km/h (2 Bft) SW 225 0 min 0,0 UV-I 8,6 C 12,9 C 6,0 km/h (2 Bft)
16.05.2011 18:17 13,7 C 15,4 C 12,9 C 13,3 C 12,5 C 0,0 C 72 % 79 % 0 % 1020,7 hPa 0,0 l/m 7,2 km/h (2 Bft) SW 225 0 min 0,0 UV-I 8,7 C 12,5 C 11,3 km/h (2 Bft)
16.05.2011 18:21 13,7 C 15,4 C 12,9 C 13,3 C 12,5 C 0,0 C 72 % 79 % 0 % 1020,7 hPa 0,0 l/m 7,2 km/h (2 Bft) SW 225 0 min 0,0 UV-I 8,7 C 12,5 C 11,3 km/h (2 Bft)
16.05.2011 18:25 13,5 C 15,4 C 12,6 C 13,1 C 11,9 C 0,0 C 73 % 81 % 0 % 1020,7 hPa 0,0 l/m 7,7 km/h (2 Bft) W-SW 247 0 min 0,0 UV-I 8,8 C 11,9 C 7,9 km/h (2 Bft)
16.05.2011 18:30 13,4 C 15,4 C 12,5 C 12,9 C 11,6 C 0,0 C 74 % 83 % 0 % 1020,7 hPa 0,0 l/m 8,2 km/h (2 Bft) S-SO 157 0 min 0,0 UV-I 8,9 C 11,6 C 4,2 km/h (1 Bft)
16.05.2011 18:35 13,3 C 15,4 C 12,4 C 12,7 C 11,6 C 0,0 C 75 % 83 % 0 % 1020,6 hPa 0,0 l/m 7,9 km/h (2 Bft) SW 225 0 min 0,0 UV-I 9,0 C 11,6 C 6,6 km/h (2 Bft)
16.05.2011 18:40 13,3 C 15,4 C 12,4 C 12,8 C 11,8 C 0,0 C 76 % 83 % 0 % 1020,6 hPa 0,0 l/m 6,4 km/h (2 Bft) SW 225 0 min 0,0 UV-I 9,2 C 11,8 C 8,0 km/h (2 Bft)
16.05.2011 18:45 13,3 C 15,4 C 12,3 C 12,9 C 12,2 C 0,0 C 76 % 84 % 0 % 1020,6 hPa 0,0 l/m 5,5 km/h (1 Bft) S 180 0 min 0,0 UV-I 9,2 C 12,2 C 5,0 km/h (1 Bft)
16.05.2011 18:50 13,2 C 15,4 C 12,3 C 12,8 C 12,1 C 0,0 C 77 % 84 % 0 % 1020,6 hPa 0,0 l/m 4,8 km/h (1 Bft) S-SW 202 0 min 0,0 UV-I 9,3 C 12,1 C 6,1 km/h (2 Bft)
16.05.2011 18:55 13,2 C 15,5 C 12,3 C 12,8 C 12,1 C 0,0 C 77 % 84 % 0 % 1020,6 hPa 0,0 l/m 4,2 km/h (1 Bft) SW 225 0 min 0,0 UV-I 9,3 C 12,1 C 7,4 km/h (2 Bft)
16.05.2011 19:00 13,3 C 15,4 C 12,3 C 12,9 C 12,0 C 0,0 C 77 % 84 % 0 % 1020,6 hPa 0,0 l/m 3,7 km/h (1 Bft) S 180 0 min 0,0 UV-I 9,4 C 12,0 C 6,1 km/h (2 Bft)
16.05.2011 19:10 13,1 C 15,5 C 12,3 C 12,7 C 11,9 C 0,0 C 78 % 84 % 0 % 1020,6 hPa 0,0 l/m 2,4 km/h (1 Bft) N 0 0 min 0,0 UV-I 9,4 C 11,9 C 1,9 km/h (1 Bft)
16.05.2011 19:15 13,1 C 15,5 C 12,3 C 12,7 C 11,8 C 0,0 C 78 % 84 % 0 % 1020,7 hPa 0,0 l/m 1,8 km/h (1 Bft) W 270 0 min 0,0 UV-I 9,4 C 11,8 C 0,0 km/h (0 Bft)
16.05.2011 19:20 13,1 C 15,5 C 12,3 C 12,7 C 11,8 C 0,0 C 79 % 84 % 0 % 1020,7 hPa 0,0 l/m 1,8 km/h (1 Bft) S 180 0 min 0,0 UV-I 9,5 C 11,8 C 3,2 km/h (1 Bft)
16.05.2011 19:25 13,1 C 15,5 C 12,3 C 12,6 C 11,6 C 0,0 C 79 % 84 % 0 % 1020,7 hPa 0,0 l/m 2,3 km/h (1 Bft) S-SO 157 0 min 0,0 UV-I 9,5 C 11,6 C 2,3 km/h (1 Bft)
16.05.2011 19:30 13,1 C 15,6 C 12,3 C 12,6 C 11,6 C 0,0 C 80 % 84 % 0 % 1020,7 hPa 0,0 l/m 3,1 km/h (1 Bft) S 180 0 min 0,0 UV-I 9,7 C 11,6 C 11,7 km/h (2 Bft)
16.05.2011 19:35 13,0 C 15,6 C 12,3 C 12,5 C 11,6 C 0,0 C 80 % 84 % 0 % 1020,8 hPa 0,0 l/m 3,5 km/h (1 Bft) SW 225 0 min 0,0 UV-I 9,6 C 11,6 C 5,3 km/h (1 Bft)
16.05.2011 19:40 13,1 C 15,6 C 12,3 C 12,6 C 11,6 C 0,0 C 80 % 84 % 0 % 1020,8 hPa 0,0 l/m 3,9 km/h (1 Bft) W-SW 247 0 min 0,0 UV-I 9,7 C 11,6 C 2,7 km/h (1 Bft)
16.05.2011 19:45 12,9 C 15,6 C 12,3 C 12,5 C 11,6 C 0,0 C 80 % 84 % 0 % 1020,8 hPa 0,0 l/m 4,2 km/h (1 Bft) SW 225 0 min 0,0 UV-I 9,5 C 11,6 C 3,9 km/h (1 Bft)
16.05.2011 19:50 12,9 C 15,6 C 12,3 C 12,4 C 11,5 C 0,0 C 80 % 84 % 0 % 1020,8 hPa 0,0 l/m 4,7 km/h (1 Bft) S 180 0 min 0,0 UV-I 9,5 C 11,5 C 7,2 km/h (2 Bft)
16.05.2011 19:55 12,8 C 15,6 C 12,3 C 12,4 C 11,5 C 0,0 C 80 % 84 % 0 % 1020,8 hPa 0,0 l/m 3,7 km/h (1 Bft) N-NW 337 0 min 0,0 UV-I 9,4 C 11,5 C 2,3 km/h (1 Bft)
16.05.2011 20:00 12,9 C 15,6 C 12,3 C 12,4 C 11,5 C 0,0 C 80 % 84 % 0 % 1020,8 hPa 0,0 l/m 2,1 km/h (1 Bft) S 180 0 min 0,0 UV-I 9,5 C 11,5 C 4,0 km/h (1 Bft)
16.05.2011 20:10 12,7 C 15,6 C 12,3 C 12,3 C 11,4 C 0,0 C 80 % 84 % 0 % 1020,8 hPa 0,7 l/m 1,8 km/h (1 Bft) N 0 0 min 0,0 UV-I 9,3 C 11,4 C 4,8 km/h (1 Bft)
16.05.2011 20:15 12,7 C 15,6 C 12,3 C 12,2 C 11,3 C 0,0 C 80 % 84 % 0 % 1021,1 hPa 0,0 l/m 2,3 km/h (1 Bft) SO 135 0 min 0,0 UV-I 9,3 C 11,3 C 6,4 km/h (2 Bft)
16.05.2011 20:20 12,7 C 15,6 C 12,3 C 12,2 C 11,3 C 0,0 C 80 % 84 % 0 % 1021,1 hPa 0,0 l/m 2,9 km/h (1 Bft) SW 225 0 min 0,0 UV-I 9,3 C 11,3 C 3,5 km/h (1 Bft)
16.05.2011 20:25 12,7 C 15,7 C 12,3 C 12,2 C 11,2 C 0,0 C 80 % 84 % 0 % 1021,1 hPa 0,0 l/m 3,5 km/h (1 Bft) W-SW 247 0 min 0,0 UV-I 9,3 C 11,2 C 3,4 km/h (1 Bft)
16.05.2011 20:27 12,7 C 15,6 C 12,0 C 12,2 C 11,1 C 0,0 C 80 % 85 % 0 % 1021,1 hPa 0,0 l/m 3,4 km/h (1 Bft) N-NO 22 0 min 0,0 UV-I 9,3 C 11,1 C 0,0 km/h (0 Bft)
16.05.2011 20:32 12,6 C 15,6 C 12,0 C 12,1 C 11,2 C 0,0 C 80 % 85 % 0 % 1020,8 hPa 0,0 l/m 2,6 km/h (1 Bft) W 270 0 min 0,0 UV-I 9,2 C 11,2 C 3,7 km/h (1 Bft)
16.05.2011 20:37 12,6 C 15,6 C 11,8 C 12,1 C 11,1 C 0,0 C 80 % 87 % 0 % 1020,8 hPa 0,0 l/m 2,4 km/h (1 Bft) NW 315 0 min 0,0 UV-I 9,2 C 11,1 C 1,9 km/h (1 Bft)
16.05.2011 20:42 12,6 C 15,6 C 11,8 C 12,1 C 11,2 C 0,0 C 80 % 87 % 0 % 1020,8 hPa 0,0 l/m 2,4 km/h (1 Bft) S-SO 157 0 min 0,0 UV-I 9,2 C 11,2 C 3,9 km/h (1 Bft)
16.05.2011 20:47 12,5 C 15,6 C 11,8 C 12,1 C 11,2 C 0,0 C 80 % 87 % 0 % 1020,8 hPa 0,0 l/m 1,9 km/h (1 Bft) SW 225 0 min 0,0 UV-I 9,1 C 11,2 C 1,8 km/h (1 Bft)
16.05.2011 20:51 12,5 C 15,6 C 11,8 C 12,1 C 11,2 C 0,0 C 80 % 87 % 0 % 1020,8 hPa 0,0 l/m 1,9 km/h (1 Bft) SW 225 0 min 0,0 UV-I 9,1 C 11,2 C 1,8 km/h (1 Bft)
16.05.2011 20:55 12,5 C 15,6 C 11,8 C 12,1 C 11,2 C 0,0 C 80 % 87 % 0 % 1020,7 hPa 0,0 l/m 1,9 km/h (1 Bft) O-SO 112 0 min 0,0 UV-I 9,1 C 11,2 C 4,0 km/h (1 Bft)
16.05.2011 21:00 12,5 C 15,6 C 11,8 C 12,1 C 11,2 C 0,0 C 80 % 87 % 0 % 1020,7 hPa 0,0 l/m 2,1 km/h (1 Bft) W 270 0 min 0,0 UV-I 9,1 C 11,2 C 0,0 km/h (0 Bft)
16.05.2011 21:10 12,4 C 15,6 C 11,8 C 11,9 C 11,0 C 0,0 C 80 % 87 % 0 % 1020,7 hPa 0,0 l/m 2,4 km/h (1 Bft) N 0 0 min 0,0 UV-I 9,0 C 11,0 C 10,3 km/h (2 Bft)
16.05.2011 21:15 12,4 C 15,6 C 11,8 C 11,9 C 11,0 C 0,0 C 80 % 87 % 0 % 1020,8 hPa 0,0 l/m 3,4 km/h (1 Bft) SW 225 0 min 0,0 UV-I 9,0 C 11,0 C 6,1 km/h (2 Bft)
16.05.2011 21:20 12,4 C 15,6 C 11,8 C 11,9 C 11,0 C 0,0 C 81 % 87 % 0 % 1020,8 hPa 0,0 l/m 3,4 km/h (1 Bft) S 180 0 min 0,0 UV-I 9,2 C 11,0 C 7,9 km/h (2 Bft)
16.05.2011 21:25 12,3 C 15,6 C 11,8 C 11,8 C 10,9 C 0,0 C 81 % 87 % 0 % 1020,8 hPa 0,0 l/m 2,1 km/h (1 Bft) W-SW 247 0 min 0,0 UV-I 9,1 C 10,9 C 1,8 km/h (1 Bft)
16.05.2011 21:30 12,3 C 15,6 C 11,8 C 11,8 C 10,9 C 0,0 C 81 % 87 % 0 % 1020,8 hPa 0,0 l/m 1,1 km/h (1 Bft) W-SW 247 0 min 0,0 UV-I 9,1 C 10,9 C 0,0 km/h (0 Bft)
16.05.2011 21:35 12,3 C 15,6 C 11,8 C 11,8 C 10,9 C 0,0 C 81 % 87 % 0 % 1020,6 hPa 0,0 l/m 0,6 km/h (0 Bft) SO 135 0 min 0,0 UV-I 9,1 C 10,9 C 2,1 km/h (1 Bft)
16.05.2011 21:40 12,3 C 15,6 C 11,7 C 11,8 C 10,9 C 0,0 C 81 % 88 % 0 % 1020,6 hPa 0,0 l/m 1,1 km/h (1 Bft) O 90 0 min 0,0 UV-I 9,1 C 10,9 C 2,9 km/h (1 Bft)
16.05.2011 21:45 12,3 C 15,6 C 11,6 C 11,8 C 10,9 C 0,0 C 81 % 88 % 0 % 1020,6 hPa 0,0 l/m 1,3 km/h (1 Bft) N-NO 22 0 min 0,0 UV-I 9,1 C 10,9 C 0,0 km/h (0 Bft)
16.05.2011 21:50 12,2 C 15,7 C 11,6 C 11,7 C 10,8 C 0,0 C 81 % 88 % 0 % 1020,6 hPa 0,0 l/m 1,1 km/h (1 Bft) S-SO 157 0 min 0,0 UV-I 9,0 C 10,8 C 2,4 km/h (1 Bft)
16.05.2011 21:55 12,3 C 15,8 C 11,5 C 11,8 C 10,8 C 0,0 C 82 % 88 % 0 % 1020,9 hPa 0,0 l/m 0,8 km/h (0 Bft) SO 135 0 min 0,0 UV-I 9,3 C 10,8 C 2,3 km/h (1 Bft)
16.05.2011 22:00 12,3 C 15,8 C 11,5 C 11,8 C 10,7 C 0,0 C 82 % 88 % 0 % 1020,9 hPa 0,0 l/m 1,3 km/h (1 Bft) S 180 0 min 0,0 UV-I 9,3 C 10,7 C 2,1 km/h (1 Bft)
16.05.2011 22:10 12,1 C 15,8 C 11,5 C 11,6 C 10,7 C 0,0 C 83 % 88 % 0 % 1020,9 hPa 0,0 l/m 1,3 km/h (1 Bft) N 0 0 min 0,0 UV-I 9,3 C 10,7 C 3,4 km/h (1 Bft)
16.05.2011 22:15 12,1 C 15,8 C 11,5 C 11,6 C 10,7 C 0,0 C 83 % 88 % 0 % 1020,9 hPa 0,0 l/m 1,8 km/h (1 Bft) SO 135 0 min 0,0 UV-I 9,3 C 10,7 C 3,4 km/h (1 Bft)
16.05.2011 22:20 12,1 C 15,8 C 11,5 C 11,6 C 10,7 C 0,0 C 83 % 88 % 0 % 1020,9 hPa 0,0 l/m 2,3 km/h (1 Bft) S-SO 157 0 min 0,0 UV-I 9,3 C 10,7 C 2,3 km/h (1 Bft)
16.05.2011 22:25 12,1 C 15,8 C 11,5 C 11,6 C 10,7 C 0,0 C 83 % 88 % 0 % 1020,9 hPa 0,0 l/m 2,3 km/h (1 Bft) O-SO 112 0 min 0,0 UV-I 9,3 C 10,7 C 3,2 km/h (1 Bft)
16.05.2011 22:30 12,1 C 15,7 C 11,5 C 11,6 C 10,7 C 0,0 C 83 % 88 % 0 % 1020,9 hPa 0,0 l/m 1,9 km/h (1 Bft) S-SO 157 0 min 0,0 UV-I 9,3 C 10,7 C 5,1 km/h (1 Bft)
16.05.2011 22:35 12,0 C 15,7 C 11,5 C 11,6 C 10,8 C 0,0 C 83 % 88 % 0 % 1020,7 hPa 0,0 l/m 1,8 km/h (1 Bft) W-SW 247 0 min 0,0 UV-I 9,2 C 10,8 C 0,0 km/h (0 Bft)
16.05.2011 22:40 12,1 C 15,7 C 11,5 C 11,7 C 10,9 C 0,0 C 84 % 88 % 0 % 1020,7 hPa 0,0 l/m 2,1 km/h (1 Bft) S 180 0 min 0,0 UV-I 9,5 C 10,9 C 6,3 km/h (2 Bft)
16.05.2011 22:45 12,1 C 15,7 C 11,5 C 11,7 C 10,9 C 0,0 C 83 % 88 % 0 % 1020,7 hPa 0,0 l/m 1,4 km/h (1 Bft) W-SW 247 0 min 0,0 UV-I 9,3 C 10,9 C 0,0 km/h (0 Bft)
16.05.2011 22:50 12,0 C 15,7 C 11,5 C 11,6 C 10,9 C 0,0 C 83 % 88 % 0 % 1020,7 hPa 0,0 l/m 1,1 km/h (1 Bft) SW 225 0 min 0,0 UV-I 9,2 C 10,9 C 0,0 km/h (0 Bft)
16.05.2011 22:55 12,1 C 15,7 C 11,3 C 11,7 C 11,0 C 0,0 C 83 % 89 % 0 % 1020,6 hPa 0,0 l/m 1,0 km/h (0 Bft) S 180 0 min 0,0 UV-I 9,3 C 11,0 C 4,3 km/h (1 Bft)
16.05.2011 23:00 12,1 C 15,6 C 11,3 C 11,8 C 11,1 C 0,0 C 83 % 89 % 0 % 1020,6 hPa 0,0 l/m 0,8 km/h (0 Bft) SW 225 0 min 0,0 UV-I 9,3 C 11,1 C 0,0 km/h (0 Bft)
16.05.2011 23:10 12,0 C 15,6 C 11,3 C 11,7 C 11,1 C 0,0 C 83 % 89 % 0 % 1020,6 hPa 0,0 l/m 0,3 km/h (0 Bft) N 0 0 min 0,0 UV-I 9,2 C 11,1 C 2,9 km/h (1 Bft)
16.05.2011 23:15 12,1 C 15,6 C 11,3 C 11,8 C 11,1 C 0,0 C 83 % 89 % 0 % 1020,6 hPa 0,0 l/m 0,6 km/h (0 Bft) S-SO 157 0 min 0,0 UV-I 9,3 C 11,1 C 3,7 km/h (1 Bft)
16.05.2011 23:20 12,1 C 15,6 C 11,3 C 11,8 C 11,2 C 0,0 C 83 % 89 % 0 % 1020,6 hPa 0,0 l/m 0,8 km/h (0 Bft) NW 315 0 min 0,0 UV-I 9,3 C 11,2 C 0,0 km/h (0 Bft)
16.05.2011 23:25 12,1 C 15,6 C 11,3 C 11,8 C 11,3 C 0,0 C 83 % 89 % 0 % 1020,6 hPa 0,0 l/m 0,8 km/h (0 Bft) O-NO 67 0 min 0,0 UV-I 9,3 C 11,3 C 0,0 km/h (0 Bft)
16.05.2011 23:30 12,1 C 15,6 C 11,3 C 11,8 C 11,3 C 0,0 C 83 % 89 % 0 % 1020,6 hPa 0,0 l/m 1,0 km/h (0 Bft) S-SO 157 0 min 0,0 UV-I 9,3 C 11,3 C 4,2 km/h (1 Bft)
16.05.2011 23:35 12,1 C 15,6 C 11,3 C 11,9 C 11,4 C 0,0 C 82 % 89 % 0 % 1020,7 hPa 0,0 l/m 1,4 km/h (1 Bft) N-NO 22 0 min 0,0 UV-I 9,1 C 11,4 C 2,7 km/h (1 Bft)
16.05.2011 23:40 12,2 C 15,6 C 11,3 C 12,0 C 11,5 C 0,0 C 82 % 89 % 0 % 1020,7 hPa 0,0 l/m 1,9 km/h (1 Bft) S-SO 157 0 min 0,0 UV-I 9,2 C 11,5 C 4,8 km/h (1 Bft)
16.05.2011 23:45 12,3 C 15,6 C 11,3 C 12,0 C 11,5 C 0,0 C 82 % 89 % 0 % 1020,7 hPa 0,0 l/m 2,6 km/h (1 Bft) SW 225 0 min 0,0 UV-I 9,3 C 11,5 C 2,9 km/h (1 Bft)
16.05.2011 23:50 12,3 C 15,6 C 11,3 C 12,1 C 11,6 C 0,0 C 82 % 89 % 0 % 1020,7 hPa 0,0 l/m 3,4 km/h (1 Bft) S-SO 157 0 min 0,0 UV-I 9,3 C 11,6 C 6,0 km/h (2 Bft)
16.05.2011 23:55 12,3 C 15,6 C 11,3 C 12,1 C 11,7 C 0,0 C 82 % 89 % 0 % 1020,8 hPa 0,0 l/m 4,0 km/h (1 Bft) W-SW 247 0 min 0,0 UV-I 9,3 C 11,7 C 6,4 km/h (2 Bft)
_ Min-Zeit 02:40 09:10 02:00 01:40 01:40 00:00 14:55 16:50 00:00 16:55 - 00:00 - - - 00:00 02:40 01:40 00:00
Minimum _ 7,9 C 14,9 C 6,7 C 7,0 C 4,6 C 0,0 C 63 % 72 % 0 % 1020,4 hPa - 0,0 km/h (0 Bft) - - - 0,0 UV-I 5,2 C 4,6 C 0,0 km/h (0 Bft)
_ Max-Zeit 14:50 00:00 17:10 14:10 14:10 14:10 05:55 00:00 14:10 09:35 20:10 14:30 - - 00:00 14:10 19:30 14:10 17:35
Maximum _ 14,5 C 16,2 C 13,9 C 16,7 C 16,7 C 2,7 C 85 % 93 % 71 % 1022,9 hPa 0,7 l/m 10,3 km/h
S-SW (2 Bft)
- - 0 min 2,6 UV-I 9,7 C 16,7 C 23,8 km/h
S-SO (4 Bft)
Durchschnitt _ 11,4 C 15,4 C 10,2 C 11,4 C 10,7 C 0,4 C 77 % 86 % 11 % 1021,5 hPa #0,7 l/m 3,4 km/h (1 Bft) SW - #0 min. 0,7 UV-I 7,3 C 10,7 C 4,7 km/h (1 Bft)
2013 www.wetterstation-wechselburg.de